Tracking 30923 objects as of 1-Jul-2025
HD Live streaming from Space Station
objects crossing your sky now

STARLINK-5135

Track STARLINK-5135 now!
10-day predictions
STARLINK-5135 is classified as:


NORAD ID: 54005
Int'l Code: 2022-125AT
Perigee: 546.1 km
Apogee: 547.7 km
Inclination: 53.2 °
Period: 95.4 minutes
Semi major axis: 6917 km
RCS: Unknown
Launch date: October 5, 2022
Source: United States (US)
Launch site: AIR FORCE WESTERN TEST RANGE (AFWTR)
Your satellite tracking list
FLOCK 4V 8
Track 1 satellite(s)




NASA's NSSDC Master Catalog

Two Line Element Set (TLE):
1 54005U 22125AT  25181.42876048 -.00000345  00000-0 -35686-5 0  9999
2 54005  53.2168 266.2843 0001171  86.9432 273.1694 15.08843902151384
Source of the keplerian elements: AFSPC